Flag for Romania Weather past 2 weeks in Iasi, Romania

Now
30 °F

Light freezing rain. Low clouds.


Feels Like: 22 °F
Forecast: 29 / 38 °F
Wind: 9 mph from Northeast

Location: Iasi Airport

Current Time: Oct 25, 2014 at 12:46:33 AM

Latest Report: Oct 25, 2014 at 12:00 AM


Visibility: 4 mi

Pressure: 30.45 "Hg

Humidity: 93%

Dew point: 28 °F

Location of IasiLocation

Historic Weather in Iasi — Graph

°F

Iasi temperature yesterday

Maximum temperature yesterday: 41 °F (at 1:00 AM)
Minimum temperature yesterday: 30 °F (at 11:00 PM)
Average temperature yesterday: 35 °F

Past Weeks' High & Low Weather Summary

 TemperatureHumidityPressure
High77 °F (Oct 15, 4:30 PM)100% (Oct 10, 7:00 AM)30.42 "Hg (Oct 10, 7:00 AM)
Low30 °F (Oct 24, 11:00 PM)29% (Oct 13, 3:30 PM)29.65 "Hg (Oct 22, 3:00 PM)
Average55 °F79%30.00 "Hg
* Reported Oct 9 11:00 PM — Oct 24 11:00 PM, Iasi, Weather by CustomWeather, © 2014

Note: Actual official high and low records may vary slightly from our data, if they occured in-between our weather recording intervals... More about our weather records

Advertising

Iasi weather history for previous 24 hours

 ConditionsComfort  
Time TempWeatherWind HumidityBarometerVisibility
11:00 PM
Oct 24
30 °FLow clouds.14 mph93%30.42 "HgN/A
10:00 PM32 °FLight freezing rain. Low clouds.14 mph93%30.39 "HgN/A
9:00 PM32 °FLow clouds.12 mph93%30.39 "HgN/A
8:30 PM32 °FMostly cloudy.12 mph93%30.36 "HgN/A
8:00 PM32 °FLow clouds.14 mph93%30.36 "HgN/A
7:30 PM32 °FDrizzle. Mostly cloudy.14 mph93%30.36 "HgN/A
7:00 PM32 °FDrizzle. Mostly cloudy.12 mph93%30.36 "HgN/A
6:30 PM34 °FDrizzle. Cloudy.12 mph93%30.33 "HgN/A
6:00 PM34 °FDrizzle. Cloudy.12 mph93%30.33 "HgN/A
5:30 PM34 °FDrizzle. Cloudy.12 mph93%30.33 "HgN/A
5:00 PM34 °FDrizzle. Mostly cloudy.9 mph93%30.33 "HgN/A
4:30 PM34 °FDrizzle. Mostly cloudy.12 mph93%30.30 "HgN/A
4:00 PM34 °FLight rain. Partly sunny.12 mph93%30.30 "HgN/A
3:30 PM36 °FPartly sunny.12 mph93%30.30 "HgN/A
3:00 PM36 °FCloudy.12 mph93%30.27 "HgN/A
2:30 PM36 °FCloudy.9 mph93%30.27 "HgN/A
2:00 PM36 °FCloudy.12 mph93%30.27 "HgN/A
1:30 PM36 °FLight rain. Cloudy.9 mph93%30.27 "Hg6 mi
1:00 PM36 °FLight rain. Cloudy.12 mph93%30.27 "Hg5 mi
12:30 PM34 °FLight rain. Cloudy.14 mph100%30.27 "Hg4 mi
12:00 PM34 °FLight rain. Cloudy.14 mph100%30.24 "Hg4 mi
11:30 AM34 °FLight rain. Cloudy.12 mph100%30.24 "Hg6 mi
10:30 AM34 °FLight rain. Cloudy.14 mph100%30.21 "Hg4 mi
10:00 AM36 °FLight rain. Broken clouds.12 mph93%30.21 "Hg6 mi
9:30 AM36 °FLight rain. Broken clouds.14 mph93%30.18 "Hg5 mi
9:00 AM36 °FLight rain. Broken clouds.12 mph93%30.18 "Hg6 mi
8:30 AM36 °FLight rain. Partly cloudy.14 mph93%30.15 "Hg6 mi
8:00 AM36 °FLight rain. Passing clouds.14 mph100%30.12 "Hg6 mi
7:30 AM36 °FLight rain. Passing clouds.14 mph100%30.12 "Hg6 mi
7:00 AM36 °FLight rain. Passing clouds.14 mph100%30.09 "Hg4 mi
6:30 AM36 °FLight rain. Passing clouds.14 mph100%30.09 "Hg6 mi
5:30 AM36 °FLight rain. Passing clouds.12 mph100%30.09 "Hg5 mi
5:00 AM37 °FLight rain. Passing clouds.12 mph93%30.09 "Hg2 mi
3:00 AM39 °FLight rain. Passing clouds.14 mph93%30.04 "HgN/A
2:00 AM39 °FLight rain. Passing clouds.14 mph100%30.04 "HgN/A
1:00 AM41 °FRain. Passing clouds.14 mph100%30.04 "Hg4 mi
Weather by CustomWeather, © 2014

See weather overviewHow to use our weather pages